Regional Weather Roundup
Issued by NWS Cleveland, OH

Home | Current Version | Previous Version | Graphics & Text | Print | Product List | Glossary On
Versions: 1 2 3 4 5 6 7 8 9 10 11 12 13 14 15 16 17 18 19 20 21 22 23 24 25 26 27 28 29 30 31 32 33 34 35 36 37 38 39 40 41 42 43 44 45 46 47 48 49 50
000
ASUS41 KCLE 012302
RWRCLE
OHIO REGIONAL WEATHER ROUNDUP
NATIONAL WEATHER SERVICE CLEVELAND, OH
600 PM EST SUN MAR 01 2015

NOTE: "FAIR" INDICATES FEW OR NO CLOUDS BELOW 12,000 FEET WITH NO
SIGNIFICANT WEATHER AND/OR OBSTRUCTIONS TO VISIBILITY.

OHZ001>008-015>018-024>027-034-035-043-044-020000-
   NORTHWEST OHIO

CITY           SKY/WX    TMP DP  RH WIND       PRES   REMARKS
DEFIANCE       PTCLDY    23  18  81 SW5       30.26S WCI  17
FINDLAY        CLOUDY    24  20  84 NW6       30.23F FOG     WCI  17
TOLEDO EXPRESS PTCLDY    19  14  81 W6        30.24F WCI  11
TOLEDO EXEC    MOCLDY    23  17  78 SW6       30.25F WCI  16
LIMA           CLOUDY    27  22  81 W6        30.24S HAZE    WCI  20
$$

OHZ009>014-019>023-028>033-038-089-020000-
   NORTHEAST OHIO

CITY           SKY/WX    TMP DP  RH WIND       PRES   REMARKS
CLE-HOPKINS    CLOUDY    25  22  88 N9        30.25F FOG     WCI  15
CLE-LAKEFRONT  LGT SNOW  23  20  88 W5        30.24F FOG     WCI  17
CUY CO. ARPT   NOT AVBL
LORAIN-ELYRIA  CLOUDY    24  21  88 N6        30.23F FOG     WCI  17
ASHTABULA      LGT SNOW  25  21  85 NW6       30.21F FOG     WCI  18
AKRON-CANTON   LGT SNOW  32  29  88 W6        30.18F VSB 1   WCI  26
WOOSTER        LGT SNOW  29  27  92 N6        30.21S FOG     WCI  23
MANSFIELD      CLOUDY    28  24  85 W3        30.20S FOG
YOUNGSTOWN     LGT SNOW  31  30  96 W5        30.17F VSB 1   WCI  26
$$

OHZ042-051>053-060>062-070>072-077>081-020000-
  SOUTHWEST OHIO

CITY           SKY/WX    TMP DP  RH WIND       PRES   REMARKS
CINC-COVINGTON NOT AVBL
CINC-LUNKEN    MIX PCPN  33  32  96 SW5       30.30R FOG     WCI  29
HAMILTON       LGT SNOW  33  33 100 CALM      30.28F VSB 3/4
DAYTON         FOG       31  28  89 CALM      30.26R VSB 1
WRIGHT-PAT AFB NOT AVBL
DAYTON GENERAL FOG       32  31  96 W5        30.24R VSB 1   WCI  27
WILMINGTON     MIX PCPN  32  31  96 W9        30.24R FOG     WCI  24
$$

OHZ036-037-039>041-045>050-054>059-063>069-073>076-082>088-020000-
  CENTRAL AND SOUTHEAST OHIO

CITY           SKY/WX    TMP DP  RH WIND       PRES   REMARKS
COLUMBUS       CLOUDY    32  31  96 CALM      30.23S FOG
OSU AIRPORT    CLOUDY    32  30  92 W7        30.23S FOG     WCI  26
BOLTON FIELD   CLOUDY    32  32 100 SW3       30.23F FOG
RICKENBACK AFB MIX PCPN  32  32  99 SW5       30.23S WCI  27
NEWARK         CLOUDY    34  31  88 SW6       30.23R WCI  29
MARION         CLOUDY    27  23  85 NW3       30.23S FOG
LANCASTER      LGT RAIN  34  33  96 SW7       30.24R FOG     WCI  28
ZANESVILLE     CLOUDY    34  32  92 SW5       30.22F FOG     WCI  30
NEW PHILLY     SNOW      34  31  88 CALM      30.22S VSB 1/4
$$


USA.gov is the U.S. government's official web portal to all federal, state and local government web resources and services.